Weather History for Karlovy Vary, Czech Republic

Change the Weather History Date:

Friday, May 17, 2013

  Actual Average (EDQM) Record (EDQM)
Temperature  
Mean Temperature 58 °F -  
Max Temperature 69 °F 61 °F 80 °F (1997)
Min Temperature 48 °F 44 °F 32 °F (2012)
Degree Days  
Heating Degree Days 6    
Growing Degree Days 8 (Base 50)    
Moisture  
Dew Point 51 °F    
Average Humidity 71    
Maximum Humidity 94    
Minimum Humidity 56    
Precipitation  
Precipitation 0.00 in - - ()
Sea Level Pressure  
Sea Level Pressure 29.51 in    
Wind  
Wind Speed 8 mph ()    
Max Wind Speed 17 mph    
Max Gust Speed -    
Visibility 6.2 miles    
Events      
Averages and records for this station are not official NWS values.
T = Trace of Precipitation, MM = Missing Value Source: Averaged Metar Reports

Daily Weather History Graph

Daily Weather History Graph

Search for Another Location

Airport:

Trip Planner

Search our weather history database for the weather conditions in past years. The results will help you decide how hot, cold, wet, or windy it might be!

Date:

Astronomy

May. 17, 2013 Rise Set
Actual Time 5:18 AM CEST 8:51 PM CEST
Civil Twilight 4:38 AM CEST 9:31 PM CEST
Nautical Twilight 3:45 AM CEST 10:26 PM CEST
Astronomical Twilight 2:29 AM CEST 11:43 PM CEST
Moon 11:50 AM CEST (5/17) 1:20 AM CEST (5/17)
Length of Visible Light 16h 52m
Length of Day
15h 32m
Waxing Crescent, 42% of the Moon is Illuminated
May 17
Waxing Crescent
May 18
First Quarter
May 25
Full
May 31
Last Quarter
Jun 8
New

Hourly Weather History & Observations

Time (CEST) Temp. Dew Point Humidity Pressure Visibility Wind Dir Wind Speed Gust Speed Precip Events Conditions
12:00 AM 59.0 °F 46.4 °F 63% 29.47 in - ESE 9.2 mph - N/A   Clear
1:00 AM 53.6 °F 48.2 °F 82% 29.50 in - NE 5.8 mph - N/A   Clear
2:00 AM 51.8 °F 48.2 °F 88% 29.50 in - NE 6.9 mph - N/A   Clear
3:00 AM 53.6 °F 48.2 °F 82% 29.47 in - ENE 8.1 mph - N/A   Clear
4:00 AM 50.0 °F 48.2 °F 94% 29.47 in - East 4.6 mph - N/A   Clear
5:00 AM 48.2 °F 46.4 °F 93% 29.50 in - NE 4.6 mph - N/A   Clear
6:00 AM 51.8 °F 48.2 °F 88% 29.47 in - ENE 5.8 mph - N/A   Clear
7:00 AM 55.4 °F 50.0 °F 82% 29.47 in - NE 6.9 mph - N/A   Clear
8:00 AM 59.0 °F 50.0 °F 72% 29.50 in - East 6.9 mph - N/A   Clear
8:30 AM 60.8 °F 50.0 °F 68% 29.50 in - ENE 6.9 mph - N/A   Clear
9:00 AM 60.8 °F 51.8 °F 72% 29.50 in - NE 5.8 mph - N/A   Clear
9:30 AM 60.8 °F 50.0 °F 68% 29.50 in 6.2 mi ESE 10.4 mph - N/A   Partly Cloudy
10:00 AM 60.8 °F 50.0 °F 68% 29.50 in 6.2 mi ESE 10.4 mph - N/A   Partly Cloudy
10:30 AM 62.6 °F 50.0 °F 63% 29.50 in 6.2 mi East 11.5 mph - N/A   Partly Cloudy
11:00 AM 62.6 °F 51.8 °F 68% 29.50 in 6.2 mi SE 9.2 mph - N/A   Scattered Clouds
11:30 AM 62.6 °F 51.8 °F 68% 29.50 in 6.2 mi ESE 11.5 mph - N/A   Scattered Clouds
12:00 PM 64.4 °F 51.8 °F 64% 29.50 in 6.2 mi ESE 12.7 mph - N/A   Partly Cloudy
12:30 PM 64.4 °F 53.6 °F 68% 29.50 in 6.2 mi ESE 10.4 mph - N/A   Partly Cloudy
1:00 PM 66.2 °F 53.6 °F 64% 29.53 in 6.2 mi East 11.5 mph - N/A   Partly Cloudy
1:30 PM 68.0 °F 55.4 °F 64% 29.50 in 6.2 mi ESE 9.2 mph - N/A   Partly Cloudy
2:00 PM 69.8 °F 53.6 °F 56% 29.53 in 6.2 mi ESE 12.7 mph - N/A   Scattered Clouds
2:30 PM 68.0 °F 53.6 °F 60% 29.53 in 6.2 mi ESE 12.7 mph - N/A   Scattered Clouds
3:00 PM 68.0 °F 55.4 °F 64% 29.53 in 6.2 mi East 8.1 mph - N/A   Mostly Cloudy
3:30 PM 69.8 °F 55.4 °F 60% 29.53 in 6.2 mi ESE 11.5 mph - N/A   Mostly Cloudy
4:00 PM 68.0 °F 55.4 °F 64% 29.50 in 6.2 mi ESE 13.8 mph - N/A   Scattered Clouds
4:30 PM 68.0 °F 53.6 °F 60% 29.50 in 6.2 mi East 15.0 mph - N/A   Scattered Clouds
5:00 PM 66.2 °F 53.6 °F 64% 29.50 in 6.2 mi ESE 17.3 mph - N/A   Scattered Clouds
5:30 PM 66.2 °F 53.6 °F 64% 29.53 in 6.2 mi ESE 15.0 mph - N/A   Scattered Clouds
6:00 PM 66.2 °F 53.6 °F 64% 29.53 in 6.2 mi ESE 16.1 mph - N/A   Scattered Clouds
6:30 PM 66.2 °F 53.6 °F 64% 29.53 in 6.2 mi ESE 13.8 mph - N/A   Scattered Clouds
7:00 PM 64.4 °F 53.6 °F 68% 29.53 in 6.2 mi East 13.8 mph - N/A   Partly Cloudy
7:30 PM 62.6 °F 51.8 °F 68% 29.53 in 6.2 mi East 9.2 mph - N/A   Partly Cloudy
8:00 PM 60.8 °F 51.8 °F 72% 29.53 in 6.2 mi ESE 9.2 mph - N/A   Partly Cloudy
8:30 PM 59.0 °F 50.0 °F 72% 29.56 in 6.2 mi ESE 10.4 mph - N/A   Partly Cloudy
9:00 PM 59.0 °F 50.0 °F 72% 29.56 in 6.2 mi ESE 9.2 mph - N/A   Partly Cloudy
10:00 PM 55.4 °F 50.0 °F 82% 29.56 in 6.2 mi ENE 4.6 mph - N/A   Partly Cloudy
11:00 PM 57.2 °F 51.8 °F 82% 29.56 in 6.2 mi NNE 2.3 mph - N/A   Scattered Clouds